{"data":{"norad_id":45412,"epoch":"2026-05-25T03:21:38.433024Z","epoch_age_seconds":63146,"freshness":"FRESH","line1":"1 45412U 20019BE  26145.14002816  .00046627  00000+0  12786-2 0  9998","line2":"2 45412  53.1554 132.3041 0006417  28.5689 331.5665 15.36833004341708","mean_motion":15.36833004,"eccentricity":0.0006417,"inclination_deg":53.1554,"raan_deg":132.3041,"arg_perigee_deg":28.5689,"mean_anomaly_deg":331.5665,"bstar":0.0012786,"rev_number":34170,"period_min":93.699185028694,"perigee_km":451.09624854692,"apogee_km":459.86651437769,"semimajor_km":6833.6183814623,"source":"CELESTRAK","updated_at":"2026-05-25T13:38:16.419608Z"}}